GFSNIL_sfc_30mbdewp_096.txt.gz
Dewpoint
54 53 53 53 52 53 51 50 50 50 49 54 54 56 55 56 56 57 57 56 55 55
54 54 53 53 52 53 53 52 51 51 51 54 54 54 55 56 56 57 56 57 56 56
54 54 53 53 52 52 52 52 52 52 52 52 52 55 55 55 56 56 55 56 56 56
54 54 53 53 53 52 51 51 51 51 51 52 52 52 54 54 55 55 55 56 55 55
55 55 54 53 54 53 53 52 50 50 52 52 52 53 55 55 55 55 54 54 55 55
55 55 55 55 53 54 54 53 53 52 52 53 54 54 54 54 54 54 54 54 54 54
55 55 54 54 54 53 54 54 54 54 53 53 53 53 53 53 53 54 54 54 51 46
54 55 55 55 55 55 55 54 53 53 53 53 53 53 53 53 53 54 46 39 36 36
54 54 54 55 55 55 55 55 55 54 54 52 45 44 49 51 46 41 38 34 33 33
53 53 54 54 54 54 55 55 52 46 43 39 37 38 38 37 36 34 33 32 31 30
52 53 53 53 54 51 47 43 39 37 35 34 34 34 33 32 31 30 30 29 29 29
51 52 52 50 44 41 38 36 34 33 32 32 32 32 31 29 28 28 28 29 28 27
52 48 43 40 37 35 33 31 31 30 31 31 30 31 29 28 27 26 26 26 27 27
42 39 36 34 33 31 30 30 29 29 30 30 31 30 29 28 27 26 25 24 23 23

GFSNIL_sfc_30mbdewp_102.txt.gz
Dewpoint
54 54 54 55 54 54 54 54 55 54 53 54 54 55 56 56 55 55 53 53 54 54
54 53 53 54 54 54 54 55 54 54 53 52 53 54 56 55 55 55 54 54 54 53
53 53 53 53 52 52 54 54 54 53 52 52 53 53 54 54 55 54 54 54 54 54
53 53 52 51 51 50 52 52 53 52 51 51 53 53 54 54 54 54 53 54 54 54
54 53 52 51 51 51 50 51 52 52 50 50 51 52 54 53 53 53 53 53 53 53
55 53 53 52 52 52 52 52 51 51 51 51 51 51 51 52 52 53 54 54 54 54
54 54 54 53 52 52 53 52 52 51 51 51 51 50 50 49 50 51 52 49 47 44
54 54 54 53 53 52 52 52 52 52 51 51 51 50 50 50 50 51 44 38 37 37
53 54 54 53 53 53 53 53 53 52 51 51 51 48 50 51 49 45 40 36 34 34
54 54 54 54 53 53 53 54 54 53 51 46 43 45 47 45 40 38 35 33 33 32
54 54 54 54 54 54 53 50 47 43 40 38 36 37 37 36 34 32 32 32 32 31
54 54 54 54 53 47 44 42 39 36 35 34 33 33 33 33 31 30 29 30 31 31
54 54 54 48 43 40 38 35 33 32 32 32 31 32 32 31 29 27 27 28 27 27
47 45 41 39 36 34 32 31 31 30 31 31 31 31 30 29 27 26 26 24 25 27

GFSNIL_sfc_30mbdewp_108.txt.gz
Dewpoint
56 57 57 56 55 56 56 56 55 54 53 55 54 54 53 52 52 51 50 49 49 50
56 56 57 57 56 56 57 57 56 55 53 52 53 55 54 54 54 53 53 53 52 52
55 55 56 56 56 56 56 57 57 56 56 55 54 55 55 55 54 55 55 55 54 54
54 55 55 55 55 55 56 56 57 56 56 56 55 55 55 55 55 53 54 55 54 53
54 54 54 55 55 55 55 55 56 56 56 56 56 56 55 55 55 54 54 54 54 53
53 53 53 54 54 54 55 54 54 54 54 55 55 55 55 55 55 55 54 54 53 53
53 53 53 53 53 54 54 54 54 54 54 53 53 54 54 54 53 53 53 53 53 52
54 54 53 52 51 51 53 53 54 53 53 53 52 52 52 52 52 52 50 46 43 40
55 54 53 53 52 51 51 51 51 52 52 51 51 50 51 52 51 51 47 42 36 35
54 54 54 53 52 52 52 52 51 50 50 50 50 49 49 49 49 47 44 38 34 32
53 53 54 54 53 52 52 52 52 51 50 49 47 46 47 45 42 40 37 35 33 31
54 53 54 53 53 53 52 51 49 48 47 46 42 42 42 40 36 33 31 31 31 30
48 54 53 53 53 50 50 45 40 37 36 35 35 35 36 35 32 30 29 29 30 29
42 49 54 53 48 45 40 35 33 31 31 32 32 33 33 32 30 28 27 27 27 28

GFSNIL_sfc_30mbdewp_111.txt.gz
Dewpoint
56 56 57 57 57 55 55 53 54 53 54 53 52 51 51 51 52 52 52 51 51 52
56 57 57 56 57 57 56 55 55 55 55 54 53 52 51 51 51 51 52 51 52 52
55 57 57 57 56 57 57 55 54 54 54 55 54 54 53 53 53 52 53 52 52 52
55 56 56 56 56 56 57 56 55 53 53 52 53 54 54 53 54 53 53 54 52 53
54 55 56 55 56 56 56 57 57 55 54 52 52 52 53 54 54 53 53 53 53 53
54 54 54 55 55 56 55 56 56 57 55 54 54 54 53 53 54 54 53 54 54 53
54 54 54 54 55 55 55 55 55 55 56 56 55 55 54 53 54 54 54 54 54 54
54 54 54 54 54 54 55 54 54 54 54 55 55 55 55 55 54 54 54 52 49 46
54 54 54 53 53 53 54 54 54 54 54 53 53 53 53 54 53 52 49 45 39 37
54 54 54 54 53 52 53 53 53 53 53 53 52 51 52 53 52 50 46 40 37 34
54 55 54 54 53 53 52 52 52 52 52 52 51 49 49 49 48 45 42 38 35 33
46 53 54 54 54 53 52 52 52 51 50 50 48 45 44 44 39 36 33 33 32 31
42 44 52 54 54 53 52 51 48 46 46 46 43 41 40 39 35 32 30 31 31 31
37 39 42 53 52 50 45 41 38 36 35 37 38 37 37 36 34 31 29 28 28 28

GFSNIL_sfc_30mbdewp_114.txt.gz
Dewpoint
56 55 55 55 55 57 57 56 55 55 55 56 56 55 54 54 55 55 54 54 52 50
56 55 55 56 57 57 57 54 53 54 54 55 54 55 55 55 56 56 55 55 54 52
54 55 56 58 57 57 56 55 53 54 55 54 54 54 55 55 55 55 55 55 54 53
54 55 57 57 57 57 56 55 54 54 55 54 53 53 53 53 53 53 53 53 52 52
54 55 56 57 57 57 56 55 54 55 54 54 53 52 52 52 51 52 52 52 52 51
54 54 55 56 57 57 57 56 54 54 53 53 54 54 53 52 52 51 52 52 49 51
54 54 54 55 56 56 56 56 56 54 53 53 52 53 53 54 54 54 53 53 53 53
54 54 54 55 55 56 56 56 56 56 55 54 54 53 52 52 52 53 53 54 54 52
54 53 54 55 55 55 55 55 55 55 55 55 55 54 53 53 52 53 53 49 45 41
53 53 53 54 54 54 54 55 55 55 55 55 54 53 53 53 54 53 50 44 40 38
50 54 54 54 53 53 54 54 54 54 54 54 54 51 52 52 50 47 43 41 38 36
42 45 50 54 54 53 53 53 54 54 54 53 53 49 49 48 45 43 40 38 36 34
38 40 43 46 54 54 54 53 53 52 51 51 50 45 46 46 41 37 34 33 32 32
35 36 39 41 48 54 52 47 43 39 36 37 38 38 39 42 40 35 32 30 29 29

GFSNIL_sfc_30mbdewp_117.txt.gz
Dewpoint
57 56 55 55 54 55 57 58 59 60 59 59 58 58 57 57 57 57 56 54 53 52
56 55 54 54 55 56 57 58 58 57 57 58 57 57 57 57 57 57 57 56 55 52
56 55 55 56 57 57 58 57 55 54 55 55 56 56 56 56 57 57 57 57 56 54
54 55 55 56 57 57 57 57 55 54 54 54 54 55 55 55 56 56 56 57 55 54
54 54 55 56 57 58 57 56 54 54 54 54 54 54 54 55 56 56 56 57 56 55
54 54 55 56 57 58 56 55 54 55 54 54 54 54 54 55 55 56 56 56 55 54
54 54 54 56 56 57 56 55 54 54 54 54 53 54 54 54 54 54 53 54 53 52
54 55 55 55 55 56 57 56 54 54 53 53 54 54 53 53 52 52 53 53 52 50
53 54 54 54 56 56 56 56 56 54 53 53 52 52 52 54 53 53 53 52 50 47
53 54 54 54 54 54 55 55 56 56 55 54 53 52 51 52 52 52 52 51 46 43
42 46 52 54 54 53 55 55 55 55 55 55 55 52 51 51 53 53 51 47 46 43
39 41 44 49 54 53 53 54 55 55 54 55 54 52 50 49 48 45 42 40 39 38
38 38 39 41 45 52 54 53 54 53 50 50 49 46 46 47 43 39 36 34 33 33
35 35 36 38 42 46 52 48 43 39 36 37 39 38 42 42 40 36 32 30 29 30

GFSNIL_sfc_30mbdewp_123.txt.gz
Dewpoint
61 61 60 60 60 59 60 60 61 60 60 59 60 60 60 60 60 59 58 56 56 56
61 61 60 59 59 60 60 60 61 61 60 59 59 59 59 59 59 59 58 57 56 56
60 59 58 58 57 58 59 60 60 60 60 60 59 59 59 59 59 59 59 58 57 57
59 58 57 56 57 58 59 59 58 58 58 58 58 59 58 58 58 58 58 58 58 57
59 58 57 56 58 58 58 58 56 56 55 55 56 57 57 57 57 57 57 57 58 57
57 57 56 56 57 58 57 56 56 55 55 54 55 55 55 56 56 57 57 57 57 57
55 56 56 57 58 57 56 56 55 55 54 54 54 54 55 55 55 56 57 57 57 57
49 52 56 56 58 57 56 56 55 55 54 54 54 54 54 55 55 56 56 56 57 56
44 47 50 55 57 57 56 55 55 55 54 54 54 54 54 55 54 55 55 53 53 55
41 43 43 47 55 57 56 55 54 54 54 53 53 52 53 54 54 53 53 51 50 47
39 40 41 42 45 49 56 55 54 54 53 53 53 52 52 52 53 52 51 50 49 48
36 37 38 39 40 42 46 54 55 54 54 53 53 51 51 51 51 46 42 42 44 43
34 35 36 36 38 40 42 46 51 47 45 46 49 46 49 49 44 41 37 35 35 37
31 33 34 35 36 37 40 41 39 39 36 36 37 40 44 45 43 37 34 32 31 31

GFSNIL_sfc_30mbdewp_129.txt.gz
Dewpoint
62 62 62 62 62 62 62 61 62 62 62 62 62 62 62 61 60 60 59 58 58 57
62 61 61 61 61 61 61 61 61 62 62 62 61 61 61 60 60 60 59 59 58 57
61 61 61 61 60 60 60 60 60 61 61 60 61 61 60 60 60 59 59 59 58 57
60 61 60 60 60 60 60 60 60 60 60 59 59 59 59 59 59 59 59 59 58 58
59 59 60 60 60 60 60 60 60 60 59 58 58 58 58 58 58 58 58 58 58 58
53 58 58 58 59 60 59 59 59 59 59 58 58 58 58 58 58 58 58 58 58 58
48 50 57 58 58 58 58 58 58 58 57 57 57 56 56 56 55 55 56 56 57 57
43 46 48 52 57 58 57 57 57 56 56 55 54 54 54 54 54 54 54 54 54 55
39 41 43 46 49 56 57 56 55 55 54 54 54 54 53 54 54 53 53 53 54 54
36 38 39 41 43 46 49 55 55 55 54 53 53 53 52 52 53 53 53 53 52 50
34 35 36 37 39 41 43 47 54 54 54 53 53 52 52 51 52 52 50 49 49 46
31 32 33 34 36 38 39 42 46 51 53 53 52 51 51 50 50 48 44 42 42 43
30 30 31 31 34 35 38 40 39 39 37 38 45 42 46 49 47 44 39 37 36 37
28 29 29 29 30 33 35 34 34 33 32 31 32 36 41 45 46 43 37 35 33 32

GFSNIL_sfc_30mbdewp_132.txt.gz
Dewpoint
63 63 62 62 62 62 63 63 64 63 63 63 62 62 61 61 60 60 59 58 58 57
63 63 62 62 62 62 62 62 63 63 62 62 62 62 62 61 60 60 59 59 58 58
63 62 62 62 62 62 62 62 62 62 62 62 62 62 61 61 60 60 59 59 59 58
61 61 61 61 61 61 61 61 61 61 61 61 61 61 60 60 60 59 59 59 59 58
58 60 60 60 60 60 60 60 60 60 60 60 60 60 60 59 59 59 58 58 58 58
50 53 57 59 59 59 59 59 60 59 59 59 58 58 58 58 58 58 58 58 58 57
44 47 49 56 58 59 59 59 59 59 58 58 58 58 57 58 57 57 58 58 58 58
40 42 44 47 51 57 58 58 58 57 57 57 57 57 57 57 56 56 55 55 55 55
37 38 40 42 45 48 54 56 56 56 56 56 55 55 54 54 54 54 53 53 53 53
35 35 36 38 40 42 45 49 55 55 55 54 54 52 52 52 53 53 53 52 52 52
32 33 34 35 36 38 41 44 47 53 54 54 53 52 51 51 52 52 52 51 50 49
30 31 31 32 33 36 38 40 41 41 44 48 50 44 48 49 51 50 47 44 42 44
29 29 29 29 31 34 35 36 36 34 34 34 36 37 40 44 49 46 41 37 36 36
27 28 28 29 30 32 34 33 33 32 32 31 32 33 36 42 45 44 38 36 34 33

GFSNIL_sfc_30mbdewp_135.txt.gz
Dewpoint
64 63 63 63 62 62 62 63 63 63 63 63 63 63 62 61 61 61 61 60 60 59
64 63 63 63 63 62 62 63 63 63 63 63 63 63 62 61 60 60 60 59 59 59
63 63 63 64 63 63 62 62 63 63 62 62 63 62 62 61 61 60 60 60 59 59
63 63 63 63 63 63 63 62 62 62 62 62 62 62 61 61 61 60 60 60 59 59
56 59 61 61 61 62 61 61 62 61 61 61 61 61 61 60 60 60 59 59 59 59
47 49 52 58 61 60 60 60 60 60 60 60 60 60 60 60 60 60 59 59 59 59
42 44 46 49 54 59 60 59 60 60 60 60 60 60 60 59 59 59 59 58 58 59
39 41 42 44 47 52 58 59 59 59 59 59 58 58 58 58 58 58 58 58 58 58
35 37 38 40 43 45 48 55 57 57 57 57 57 56 56 57 57 57 56 56 55 55
33 33 34 37 39 40 43 48 50 55 56 56 56 53 53 55 55 55 55 54 53 52
31 32 32 34 35 37 40 42 44 44 46 54 45 46 51 52 54 54 53 53 52 51
30 30 32 31 33 35 37 38 38 37 37 39 39 36 39 45 51 52 50 47 45 46
29 29 30 31 32 34 35 35 34 33 33 33 33 34 36 39 49 49 44 39 38 36
28 28 29 30 30 31 33 33 33 32 31 31 30 32 33 37 43 45 42 39 36 34

GFSNIL_sfc_30mbdewp_138.txt.gz
Dewpoint
57 57 57 58 59 62 62 62 63 63 63 63 63 63 63 62 62 63 62 61 60 59
56 57 57 58 60 61 62 63 63 63 62 63 63 63 63 62 62 63 63 63 62 60
57 58 59 60 61 62 62 63 63 63 63 63 62 63 63 63 63 62 62 62 62 61
59 59 60 62 62 62 63 63 63 63 63 63 63 63 63 63 63 62 61 61 60 60
51 55 59 62 63 63 63 63 64 63 63 62 62 62 62 62 61 61 61 60 60 60
47 49 49 53 58 62 61 61 62 61 61 61 61 61 61 61 61 61 60 60 60 60
41 44 48 50 51 54 61 61 61 61 59 61 60 60 61 61 61 61 60 60 60 60
38 39 44 45 47 50 53 60 60 61 60 61 60 60 60 60 59 60 60 60 60 59
35 35 37 40 43 44 47 51 58 59 59 59 59 58 58 60 60 59 58 58 59 58
33 34 35 37 39 40 43 46 47 48 54 50 44 45 54 57 59 58 58 58 57 57
32 32 33 34 35 37 39 40 41 41 44 42 37 37 42 49 57 57 56 56 55 54
30 31 32 32 34 36 36 36 36 36 35 37 35 35 37 46 54 55 54 51 48 49
29 30 30 32 32 35 35 35 33 32 32 32 32 32 35 39 47 50 47 42 39 36
28 29 30 30 31 32 33 33 33 32 32 32 30 31 32 35 43 45 43 39 36 33

GFSNIL_sfc_30mbdewp_141.txt.gz
Dewpoint
36 34 52 57 58 57 56 59 63 63 63 64 64 64 64 63 63 63 63 61 60 58
36 36 52 57 59 55 51 52 63 63 62 62 64 64 63 63 63 63 63 63 62 61
35 43 56 58 59 59 58 59 62 63 63 62 62 63 63 62 62 62 63 64 63 62
53 56 56 58 58 60 61 61 63 63 63 62 62 62 62 61 61 61 63 63 63 62
45 50 52 55 59 59 60 63 64 64 63 62 62 62 62 61 62 62 61 63 62 62
41 43 48 50 53 57 62 61 62 62 63 62 62 62 62 62 62 62 62 62 61 61
39 40 43 46 49 50 55 61 62 63 63 62 62 62 62 62 62 62 62 62 61 61
36 39 40 41 44 48 50 53 59 61 61 61 61 61 61 61 61 61 61 61 61 61
33 35 37 38 40 42 45 48 50 51 59 59 49 47 59 61 60 61 60 59 60 60
33 33 35 36 37 39 40 42 42 44 45 40 38 38 45 55 60 60 59 59 59 58
32 32 33 34 35 37 37 38 38 38 40 39 34 35 38 46 55 59 58 58 58 56
31 32 32 32 33 36 35 35 34 34 33 34 34 33 35 44 54 56 53 48 46 54
30 30 30 31 32 34 35 34 33 32 32 31 31 32 33 38 46 48 45 40 38 38
28 28 29 30 31 32 33 33 32 32 31 31 31 31 31 32 39 43 39 36 33 33

GFSNIL_sfc_30mbdewp_144.txt.gz
Dewpoint
45 49 46 42 35 35 56 58 56 62 63 63 64 63 63 63 62 63 61 61 59 59
44 48 41 38 38 39 52 60 59 55 60 63 64 63 63 63 61 63 62 61 62 59
42 46 52 43 36 48 57 58 57 56 55 54 62 64 63 63 63 62 63 63 61 62
40 44 48 53 55 50 50 57 56 52 52 58 61 62 63 63 63 62 62 62 63 62
38 42 44 46 49 54 56 54 54 54 56 61 62 62 63 62 62 62 61 62 62 62
37 38 41 43 45 50 54 55 54 56 59 62 62 62 62 62 61 60 60 60 63 62
35 36 38 40 43 45 48 52 56 55 55 60 62 62 62 61 61 61 60 61 61 63
34 34 35 37 40 42 44 46 49 55 53 57 56 49 58 62 61 61 62 61 62 62
33 33 33 34 37 38 39 41 43 44 43 42 42 39 43 53 61 61 61 61 61 61
31 32 32 33 35 36 36 36 36 37 40 37 36 37 41 44 57 60 60 60 60 59
31 31 32 32 33 35 35 34 34 33 34 35 33 33 39 43 52 59 60 59 59 57
30 29 30 31 32 33 34 33 32 32 32 31 32 33 34 44 49 51 46 44 47 55
30 29 28 28 30 33 33 33 32 31 31 31 30 32 33 39 45 43 41 38 36 38
29 28 28 27 27 28 31 31 31 31 30 30 30 30 31 33 36 36 34 33 32 33